Location: Asheville, NC
(35.6000°N, 82.5500°W)
Time: 15:54:36
(UTC-05:00)

Tiangong 1 - Pass Details

Date: 12 January 2018
Orbit: 262 x 287 km, 42.8° (Epoch: 20 January)

Event Time Altitude Azimuth Distance (km) Brightness Sun altitude
Rises 19:27:47 0° 256° (WSW) 1,916 6.1 -22.0°
Reaches altitude 10° 19:29:46 10° 264° (W) 1,099 4.5 -22.4°
Enters shadow 19:30:39 19° 273° (W) 758 3.4 -22.5°
